Probability
19 18 16 13 12 13 13 13 14 15 15 15 14 12 9 8 7 7 8 9 9 10 10 9 7 5 3 1 0 0 0 0 0 0 0 0 0 0 0 0 0 0 0
16 16 14 11 11 11 11 11 11 11 12 13 13 13 11 9 8 8 8 8 8 9 9 9 7 6 5 2 1 0 0 0 0 0 0 0 0 0 0 0 0 0 0
14 14 13 11 10 9 8 7 6 6 6 8 10 11 10 9 8 8 8 7 7 7 8 8 7 6 6 5 3 1 0 0 0 0 0 0 0 0 0 0 0 0 0
13 13 12 12 11 9 7 6 4 3 4 5 5 6 7 8 8 8 7 6 5 5 5 6 6 6 6 6 5 3 2 1 0 0 0 0 0 0 0 0 0 0 0
13 12 11 12 12 12 10 7 5 5 5 5 4 4 5 7 7 7 7 7 5 4 4 4 5 6 6 5 5 5 4 2 1 0 0 0 0 0 0 0 0 0 0
10 10 9 11 14 14 13 9 7 8 7 6 5 4 4 5 4 4 6 7 7 6 6 5 5 5 5 3 2 3 4 2 1 0 0 0 0 0 0 0 0 0 0
8 8 8 10 13 14 13 10 10 11 9 7 5 3 2 2 1 1 3 6 8 8 8 7 5 4 4 3 1 1 1 1 0 0 0 0 0 0 0 0 0 0 0
9 9 9 10 12 13 11 10 10 12 12 10 7 4 2 1 0 0 1 3 5 7 8 8 6 4 4 3 2 1 0 0 0 0 0 0 0 0 0 0 0 0 0
12 12 12 13 13 12 9 7 8 10 12 13 11 8 5 2 1 0 0 1 2 4 6 7 5 4 3 2 2 1 0 0 0 0 0 0 0 0 0 0 0 0 0
12 13 13 14 14 12 10 7 7 8 10 12 12 9 7 4 1 0 0 0 0 2 4 5 4 3 2 1 2 2 1 0 0 0 0 0 0 0 0 0 0 0 0
12 13 13 14 14 12 10 8 7 7 7 7 7 6 6 5 3 1 0 0 0 1 4 4 3 1 1 0 1 1 1 0 0 0 0 0 0 0 0 0 0 0 0
13 12 12 13 13 12 10 8 7 6 5 4 3 4 5 5 3 1 0 0 0 1 3 4 2 1 0 0 0 0 0 0 0 0 0 0 0 0 0 0 0 0 0
11 11 11 12 13 11 9 7 5 4 3 3 3 3 3 3 2 1 0 0 0 0 1 1 1 0 0 0 0 0 0 1 1 1 1 0 0 0 0 0 0 0 0
9 9 10 11 11 10 7 5 4 3 3 3 3 3 3 3 2 1 1 0 0 0 0 0 0 0 0 0 0 0 0 1 2 3 2 1 0 0 0 0 0 0 0
8 8 9 9 9 8 5 3 3 3 3 3 3 3 3 3 3 2 1 0 0 0 0 0 0 0 0 0 0 0 0 1 2 3 3 1 0 0 0 0 0 0 0
7 7 8 8 8 6 4 3 3 3 3 2 2 2 3 3 2 1 1 0 0 0 0 0 0 0 0 0 0 1 1 1 2 3 3 2 1 0 0 0 0 0 0
6 6 7 8 7 6 4 3 3 3 2 1 1 1 1 2 1 0 0 0 0 0 0 0 0 0 0 0 0 1 2 2 2 2 3 2 1 0 0 0 0 0 0
6 6 7 7 7 6 4 3 3 3 2 1 0 0 0 0 0 0 0 0 0 0 0 0 0 0 0 0 0 1 2 2 2 1 1 1 1 0 0 0 0 0 0
5 6 7 7 8 6 4 3 3 3 3 2 1 0 0 0 0 0 0 0 0 0 0 0 0 0 0 0 0 1 2 3 2 1 0 0 0 0 0 0 0 0 0
6 6 6 8 7 5 3 3 3 3 3 2 1 0 0 0 0 0 0 0 0 0 0 0 0 0 0 0 0 0 1 2 2 1 0 0 0 0 0 0 0 0 0
7 6 6 6 6 4 3 3 3 3 3 3 1 0 0 0 0 0 0 0 0 0 0 0 0 0 0 0 0 0 0 1 1 0 0 0 0 0 0 0 0 0 0
7 7 5 5 5 4 3 3 3 3 3 3 2 0 0 0 0 0 0 0 0 0 0 0 0 0 0 0 0 0 0 0 0 0 0 0 0 0 0 0 0 0 0
7 6 5 4 4 3 3 3 3 3 3 3 1 0 0 0 0 0 0 0 0 0 0 0 0 0 0 0 0 0 0 0 0 0 0 0 0 0 0 0 0 0 0
6 5 4 3 3 3 3 3 3 3 3 2 1 0 0 0 0 0 0 0 0 0 0 0 0 0 0 0 0 0 0 0 0 0 0 0 0 0 0 0 0 0 0
5 4 3 3 3 3 3 3 3 3 2 1 0 0 0 0 0 0 0 0 0 0 0 0 0 0 0 0 0 0 0 0 0 0 0 0 0 0 0 0 0 0 0
3 3 3 3 3 3 3 3 3 3 1 0 0 0 0 0 0 0 0 0 0 0 0 0 0 0 0 0 0 0 0 0 0 0 0 0 0 0 0 0 0 0 0
Wind_Speed
3 2 2 2 1 2 2 2 2 1 1 1 2 1 1 1 1 1 1 1 1 2 1 2 2 2 1 1 1 0 1 2 2 2 1 0 1 2 2 2 3 4 5
3 3 3 2 2 2 1 0 1 2 1 1 1 1 1 1 1 1 1 1 2 2 2 2 3 2 1 1 1 1 1 2 2 1 1 0 1 2 2 3 3 4 3
4 4 3 2 2 1 1 1 1 1 1 1 1 1 0 0 1 1 2 2 2 3 3 3 3 3 2 2 2 1 1 1 1 2 1 1 1 1 1 1 1 1 3
4 4 3 2 2 1 1 1 1 1 1 1 1 1 0 1 1 1 1 2 2 3 3 3 3 3 3 3 2 2 1 1 1 1 1 1 0 0 1 1 1 1 2
5 4 3 2 1 1 1 1 1 1 1 0 1 1 0 0 1 1 1 1 2 2 2 3 3 2 3 3 2 2 2 1 1 1 1 1 1 1 1 1 2 1 2
5 3 2 2 2 2 1 1 1 1 1 1 1 1 1 1 2 2 1 1 2 2 3 3 3 2 3 3 3 3 4 4 3 2 2 2 3 2 2 2 1 1 2
4 3 3 2 2 2 1 1 1 0 1 1 0 0 0 2 2 2 2 2 2 2 2 2 2 2 2 2 2 2 2 3 4 4 3 4 3 3 3 2 2 2 3
4 3 3 3 2 1 1 1 0 0 1 0 1 1 1 2 2 2 2 1 2 2 2 2 2 2 1 1 1 1 1 2 3 3 4 4 4 3 4 4 4 3 2
4 3 3 3 3 2 1 1 0 0 0 1 1 1 1 2 2 2 1 1 1 2 2 1 1 2 2 1 1 1 2 3 3 2 3 4 4 5 3 2 1 1 2
3 3 3 3 3 2 2 1 1 1 1 1 1 2 2 2 2 2 1 0 1 2 2 2 1 1 1 1 2 2 2 3 2 2 2 3 3 4 5 4 4 3 2
3 3 3 2 2 2 1 1 0 1 1 1 2 2 2 3 3 3 2 1 1 1 1 2 2 3 2 2 2 2 4 3 2 2 1 1 1 1 2 2 3 4 3
3 2 2 2 2 1 1 1 1 0 1 2 2 3 2 2 2 3 3 3 1 1 2 2 3 4 3 2 1 2 3 2 1 1 1 1 1 2 2 2 2 3 4
3 2 1 1 0 1 1 1 1 0 0 1 1 2 2 2 2 3 3 2 2 1 2 3 3 3 2 2 3 2 1 1 1 1 2 2 2 2 2 2 2 2 2
3 1 1 1 0 1 1 1 1 1 1 1 1 2 2 2 1 1 1 1 1 1 2 3 2 2 2 2 2 2 1 1 2 2 2 2 1 1 1 1 1 1 1
2 2 1 1 1 1 1 2 2 3 4 3 3 2 2 2 3 3 2 1 1 1 0 1 2 1 1 2 2 2 1 1 1 2 1 1 1 1 2 1 1 1 1
2 2 1 1 1 1 1 2 3 3 4 4 5 4 3 4 4 4 3 3 3 2 1 0 1 1 2 2 2 2 2 2 2 2 2 2 2 2 2 1 1 1 2
3 3 2 2 2 2 1 2 2 3 2 3 4 4 4 4 3 3 2 2 2 2 1 1 2 2 2 2 2 2 3 3 2 1 2 2 2 2 2 2 1 1 2
3 3 3 3 3 2 2 2 2 2 2 3 3 4 5 4 3 3 1 1 0 1 2 2 2 3 3 3 3 3 3 2 2 2 2 2 2 1 1 2 2 2 3
3 3 3 2 2 2 2 2 2 3 2 2 2 3 4 3 2 2 2 2 2 2 3 3 3 3 3 3 3 3 3 2 2 2 2 2 2 2 2 2 2 3 3
3 4 3 2 2 2 2 2 2 2 2 2 3 3 1 0 1 2 2 2 3 3 3 3 3 3 3 3 3 2 2 2 2 3 3 2 2 2 2 2 2 2 2
3 3 4 2 2 3 2 2 3 3 3 3 3 4 4 3 3 3 3 3 3 3 3 3 2 3 2 2 2 2 3 2 2 3 3 3 2 2 2 2 2 2 2
3 3 3 3 3 2 3 2 2 3 3 3 3 3 4 3 2 2 3 3 3 3 3 2 2 2 2 2 2 2 2 2 2 2 2 2 2 2 2 2 2 2 2
3 3 2 2 2 3 3 2 3 3 3 3 3 3 3 3 3 3 3 3 3 2 2 2 2 2 2 1 1 2 2 3 3 3 2 2 2 2 2 2 2 2 3
3 3 3 2 2 2 2 3 3 3 3 3 3 3 3 3 3 4 3 3 3 2 2 2 2 3 2 1 1 1 1 1 1 1 2 2 2 2 2 2 2 2 2
2 2 3 3 3 3 3 4 4 4 4 3 3 3 3 3 3 3 2 2 2 2 2 2 2 2 2 2 1 1 1 1 1 1 1 2 2 2 2 3 2 2 2
2 2 2 2 2 3 3 3 3 3 3 3 3 3 3 3 3 3 2 2 2 2 2 2 2 2 2 2 2 2 2 1 1 1 1 1 2 2 2 2 3 2 2
Wind_Direction
138 130 121 135 148 145 152 171 163 145 153 159 164 164 158 156 157 155 208 198 194 226 235 223 247 244 248 280 268 208 175 157 193 258 259 211 173 177 177 194 198 198 208
149 129 116 103 89 87 98 129 127 123 123 125 123 135 169 175 164 165 222 240 220 230 239 232 245 244 245 251 249 246 225 190 176 220 266 230 204 194 186 201 210 208 210
135 126 117 117 116 115 117 96 86 96 89 84 97 112 147 193 192 202 219 232 238 241 235 228 235 224 236 245 243 240 237 213 160 166 214 236 221 185 164 219 222 236 228
137 140 139 149 161 171 150 114 98 92 98 119 124 150 181 228 222 240 233 251 259 263 258 242 233 217 222 227 232 232 213 166 139 144 176 229 238 216 141 177 261 261 251
138 143 151 160 158 129 113 138 130 116 124 126 85 48 23 157 292 299 264 265 275 280 285 272 253 227 214 209 216 210 194 178 165 168 191 187 226 176 197 207 222 253 265
129 136 134 132 130 127 120 114 101 75 66 67 62 70 51 337 333 331 331 296 273 258 264 275 271 244 241 241 235 217 198 190 187 187 204 204 227 220 206 200 198 180 271
138 140 136 135 128 142 143 99 119 125 88 66 14 61 273 301 306 310 314 276 264 261 256 259 277 286 247 256 267 274 265 232 200 189 199 215 209 214 192 201 213 208 230
140 144 146 140 133 128 109 102 71 109 132 225 257 231 236 294 305 322 329 286 266 271 262 241 233 266 269 225 241 294 290 271 236 210 210 224 222 217 201 202 211 226 264
142 157 160 146 135 131 135 186 215 154 316 271 247 221 225 267 273 301 337 317 298 302 296 273 243 243 255 201 177 241 301 302 297 269 236 247 244 235 213 170 179 170 267
170 170 164 155 153 166 186 208 225 205 234 263 275 249 231 248 259 259 246 222 303 310 315 309 282 286 290 167 178 190 244 273 297 312 305 292 263 244 225 198 190 191 213
166 159 161 158 162 171 178 210 228 261 281 292 298 288 262 251 249 239 213 181 231 268 283 289 293 291 279 221 195 202 228 243 255 246 264 287 291 273 254 230 206 192 199
139 145 158 165 181 166 164 258 282 312 315 304 309 310 299 278 249 246 231 218 217 223 256 263 271 284 281 265 233 251 253 244 225 233 255 266 266 266 267 262 242 223 216
130 147 164 161 191 176 187 230 287 331 277 291 282 288 297 302 276 263 248 243 250 246 268 283 288 285 287 290 280 279 264 243 202 218 248 256 251 253 264 281 281 272 274
139 155 170 158 248 275 237 220 212 226 232 253 252 260 275 289 288 291 291 288 285 291 305 314 314 315 327 308 307 295 257 228 216 226 245 260 271 279 271 255 259 276 292
152 172 194 205 214 245 259 244 228 229 215 213 231 231 235 268 263 251 238 245 238 243 306 3 2 2 349 327 316 303 289 275 249 254 254 270 279 275 271 262 247 237 245
168 182 190 202 228 239 257 296 289 252 252 242 234 231 246 247 254 258 262 256 247 209 125 57 286 275 263 271 276 279 274 266 257 242 239 239 243 253 268 276 262 238 250
184 192 194 202 219 228 234 241 282 316 307 274 260 255 246 251 254 260 276 289 265 174 171 230 246 252 258 263 258 254 263 267 264 250 244 242 240 249 257 265 271 267 262
194 202 204 211 218 225 232 234 225 231 274 292 281 264 258 256 256 261 260 74 321 204 218 230 241 248 245 248 251 255 265 275 275 265 255 242 229 228 247 261 259 254 259
200 205 205 208 220 231 240 242 232 227 234 258 288 298 275 263 269 265 189 178 221 241 240 239 242 246 245 243 243 245 245 245 244 243 247 248 236 222 242 255 256 262 259
208 212 212 210 227 247 252 247 240 230 228 235 249 255 259 221 268 263 222 219 225 239 243 241 248 253 250 244 241 241 244 243 244 242 241 243 242 223 225 238 240 248 253
208 209 216 220 224 233 242 245 243 232 229 237 246 246 218 209 227 234 230 227 229 237 242 241 245 253 256 256 252 247 240 238 234 239 242 241 239 232 225 227 236 241 252
209 207 203 217 230 237 244 243 245 246 242 246 254 255 228 222 226 229 232 237 236 241 243 234 237 240 240 242 242 237 239 245 244 240 242 242 232 222 219 230 245 242 243
215 216 215 222 229 248 262 259 254 252 250 243 235 235 226 226 230 226 227 230 231 238 247 236 234 251 260 258 242 213 207 229 239 226 223 233 239 233 225 235 246 251 248
213 213 216 223 229 232 247 257 254 249 247 246 241 234 230 230 232 232 232 229 222 226 234 232 225 226 240 269 258 202 212 246 254 228 216 219 229 231 227 238 250 254 251
217 216 218 223 230 237 245 251 251 249 251 249 240 230 231 231 230 235 231 229 232 234 236 232 220 213 206 203 198 193 178 192 240 260 238 218 227 237 240 244 246 251 251
223 221 227 240 250 247 243 245 246 246 246 247 238 228 224 227 222 226 226 225 236 239 240 238 224 208 207 205 205 192 185 199 227 249 232 217 224 237 241 242 246 241 239